Total_Precipitation_Accumulation
0.03 0.01 0.02 0.01 0.00 0.01 0.00 0.00 0.00 0.00 0.00 0.00 0.00 0.00 0.00 0.00 0.00 0.00 0.00 0.00 0.00 0.02 0.01 0.01 0.01 0.02 0.01 0.00 0.00 0.00 0.01 0.01 0.01 0.04 0.05 0.04 0.04 0.04 0.03 0.03 0.03 0.03 0.06
0.03 0.04 0.05 0.06 0.03 0.01 0.04 0.02 0.00 0.00 0.01 0.00 0.00 0.00 0.00 0.00 0.00 0.00 0.00 0.00 0.01 0.01 0.00 0.01 0.00 0.01 0.01 0.01 0.01 0.01 0.01 0.01 0.01 0.02 0.03 0.04 0.06 0.06 0.04 0.03 0.04 0.04 0.04
0.14 0.17 0.24 0.37 0.39 0.15 0.14 0.13 0.01 0.02 0.02 0.01 0.00 0.00 0.00 0.01 0.00 0.00 0.00 0.01 0.01 0.01 0.01 0.01 0.00 0.01 0.01 0.00 0.01 0.00 0.00 0.00 0.01 0.02 0.02 0.01 0.03 0.04 0.03 0.02 0.02 0.03 0.03
0.41 0.65 0.62 0.71 0.72 0.89 0.69 0.76 0.82 0.37 0.25 0.04 0.00 0.01 0.02 0.01 0.00 0.00 0.01 0.01 0.01 0.02 0.01 0.01 0.01 0.01 0.01 0.00 0.00 0.00 0.00 0.00 0.00 0.00 0.00 0.00 0.01 0.03 0.02 0.02 0.02 0.02 0.02
0.26 0.38 0.71 1.19 0.86 0.97 1.10 1.12 1.65 1.98 1.86 0.99 0.41 0.34 0.29 0.15 0.03 0.02 0.01 0.01 0.01 0.01 0.02 0.02 0.01 0.01 0.00 0.00 0.00 0.00 0.00 0.00 0.00 0.00 0.00 0.00 0.00 0.01 0.01 0.01 0.00 0.00 0.01
0.18 0.27 0.44 0.46 0.43 0.53 1.04 1.43 1.50 2.15 3.34 4.15 3.99 2.26 1.18 0.75 0.24 0.06 0.03 0.03 0.02 0.02 0.03 0.02 0.01 0.00 0.00 0.00 0.00 0.00 0.00 0.00 0.00 0.00 0.00 0.00 0.00 0.01 0.01 0.00 0.00 0.00 0.00
0.18 0.63 0.74 0.68 1.79 1.52 2.25 1.66 1.30 1.43 2.49 4.71 5.00 3.48 2.38 1.72 1.10 0.45 0.19 0.03 0.01 0.01 0.02 0.01 0.00 0.00 0.00 0.00 0.00 0.00 0.00 0.00 0.00 0.00 0.00 0.00 0.00 0.01 0.02 0.01 0.00 0.00 0.00
0.19 0.34 0.64 0.83 0.98 1.74 1.75 2.36 1.68 1.31 1.20 1.52 2.17 1.67 1.84 2.12 1.36 1.06 0.62 0.17 0.03 0.01 0.01 0.00 0.00 0.00 0.00 0.00 0.00 0.00 0.00 0.00 0.00 0.00 0.00 0.00 0.01 0.01 0.01 0.01 0.00 0.00 0.00
0.14 0.34 0.46 0.58 0.67 0.63 1.42 3.54 2.34 2.09 1.57 1.39 1.35 1.52 1.01 1.57 1.18 0.88 0.80 0.25 0.04 0.00 0.00 0.00 0.00 0.00 0.00 0.00 0.00 0.00 0.00 0.00 0.00 0.00 0.00 0.00 0.01 0.01 0.01 0.01 0.00 0.00 0.00
0.13 0.18 0.34 0.48 0.56 0.26 0.58 2.04 2.76 2.27 2.26 2.06 1.32 1.40 1.41 1.21 1.08 0.79 0.58 0.30 0.05 0.00 0.00 0.00 0.00 0.00 0.00 0.00 0.00 0.00 0.00 0.00 0.00 0.00 0.00 0.00 0.01 0.00 0.00 0.00 0.00 0.00 0.00
0.07 0.15 0.31 0.26 0.20 0.19 0.23 0.64 1.40 1.76 2.25 2.41 1.98 1.17 1.78 1.82 0.84 0.78 0.64 0.42 0.12 0.00 0.00 0.00 0.00 0.00 0.00 0.00 0.00 0.00 0.00 0.00 0.00 0.00 0.00 0.01 0.00 0.00 0.00 0.00 0.00 0.00 0.00
0.06 0.07 0.09 0.09 0.12 0.22 0.18 0.22 0.33 1.10 2.06 2.16 2.76 1.39 1.31 2.21 1.08 0.91 0.94 0.31 0.11 0.00 0.00 0.00 0.00 0.00 0.00 0.00 0.00 0.00 0.00 0.00 0.00 0.00 0.00 0.00 0.01 0.00 0.00 0.00 0.00 0.00 0.00
0.04 0.04 0.04 0.05 0.07 0.13 0.16 0.14 0.18 0.57 1.40 1.50 2.47 2.06 0.75 1.07 1.27 1.12 0.71 0.18 0.02 0.00 0.00 0.00 0.00 0.00 0.00 0.00 0.00 0.00 0.00 0.00 0.00 0.00 0.00 0.01 0.01 0.00 0.00 0.00 0.00 0.00 0.00
0.05 0.04 0.03 0.02 0.06 0.13 0.11 0.14 0.18 0.45 0.83 0.85 1.11 2.17 0.93 0.70 0.81 1.06 0.32 0.04 0.00 0.00 0.00 0.00 0.00 0.00 0.00 0.00 0.00 0.00 0.00 0.00 0.00 0.00 0.00 0.00 0.00 0.00 0.00 0.00 0.00 0.00 0.00
0.03 0.07 0.04 0.02 0.01 0.04 0.08 0.07 0.15 0.63 0.72 0.55 0.55 0.99 0.92 0.78 0.53 0.59 0.26 0.03 0.00 0.00 0.00 0.00 0.00 0.00 0.00 0.00 0.00 0.00 0.00 0.00 0.00 0.00 0.00 0.00 0.00 0.00 0.00 0.00 0.00 0.00 0.00
0.02 0.05 0.11 0.03 0.01 0.01 0.02 0.07 0.23 0.51 0.58 0.44 0.43 0.44 0.43 0.59 0.47 0.37 0.24 0.02 0.00 0.00 0.00 0.00 0.00 0.00 0.00 0.00 0.00 0.00 0.00 0.00 0.00 0.00 0.00 0.00 0.00 0.00 0.00 0.00 0.00 0.00 0.00
0.04 0.07 0.09 0.13 0.03 0.03 0.02 0.07 0.20 0.52 0.50 0.40 0.29 0.27 0.26 0.27 0.34 0.23 0.11 0.03 0.02 0.00 0.00 0.00 0.00 0.00 0.00 0.00 0.00 0.00 0.00 0.00 0.00 0.00 0.00 0.00 0.00 0.00 0.00 0.00 0.00 0.00 0.00
0.03 0.08 0.08 0.11 0.05 0.11 0.04 0.08 0.17 0.34 0.52 0.31 0.19 0.19 0.25 0.18 0.21 0.14 0.09 0.04 0.05 0.01 0.00 0.00 0.00 0.00 0.00 0.00 0.00 0.00 0.00 0.00 0.00 0.00 0.00 0.00 0.00 0.00 0.00 0.00 0.00 0.00 0.00
0.02 0.09 0.12 0.13 0.11 0.09 0.10 0.07 0.17 0.28 0.36 0.26 0.14 0.15 0.24 0.18 0.25 0.18 0.09 0.04 0.04 0.02 0.00 0.00 0.00 0.00 0.00 0.00 0.00 0.00 0.00 0.00 0.00 0.00 0.00 0.00 0.00 0.00 0.00 0.00 0.00 0.00 0.00
0.01 0.03 0.11 0.15 0.16 0.15 0.15 0.16 0.28 0.35 0.34 0.26 0.17 0.13 0.14 0.14 0.12 0.18 0.12 0.04 0.02 0.01 0.00 0.00 0.00 0.00 0.00 0.00 0.00 0.00 0.00 0.00 0.00 0.00 0.00 0.00 0.00 0.00 0.00 0.00 0.00 0.00 0.00
0.01 0.02 0.05 0.12 0.15 0.14 0.16 0.25 0.38 0.39 0.24 0.21 0.21 0.17 0.16 0.20 0.08 0.09 0.09 0.07 0.01 0.01 0.00 0.01 0.01 0.00 0.00 0.00 0.00 0.00 0.00 0.00 0.00 0.00 0.00 0.00 0.00 0.00 0.00 0.00 0.00 0.00 0.00
0.01 0.02 0.02 0.04 0.06 0.10 0.09 0.17 0.23 0.27 0.21 0.16 0.18 0.23 0.20 0.17 0.08 0.09 0.07 0.05 0.01 0.00 0.00 0.00 0.00 0.00 0.00 0.00 0.00 0.00 0.00 0.00 0.00 0.00 0.00 0.00 0.00 0.00 0.00 0.00 0.00 0.00 0.00
0.01 0.01 0.01 0.00 0.01 0.07 0.11 0.25 0.32 0.35 0.24 0.19 0.14 0.16 0.20 0.17 0.11 0.06 0.06 0.02 0.01 0.00 0.00 0.00 0.00 0.00 0.00 0.00 0.00 0.02 0.10 0.17 0.08 0.00 0.00 0.00 0.00 0.00 0.00 0.00 0.00 0.00 0.00
0.00 0.00 0.02 0.01 0.01 0.03 0.06 0.13 0.16 0.15 0.09 0.05 0.02 0.04 0.11 0.14 0.11 0.04 0.02 0.01 0.01 0.00 0.00 0.00 0.01 0.01 0.02 0.03 0.05 0.08 0.10 0.14 0.14 0.13 0.02 0.00 0.00 0.01 0.00 0.00 0.00 0.00 0.00
0.00 0.00 0.01 0.01 0.01 0.01 0.02 0.06 0.13 0.06 0.02 0.03 0.00 0.00 0.02 0.06 0.05 0.02 0.02 0.01 0.01 0.00 0.01 0.08 0.05 0.04 0.04 0.11 0.13 0.08 0.10 0.13 0.15 0.11 0.10 0.08 0.02 0.01 0.00 0.00 0.00 0.00 0.00
0.00 0.00 0.00 0.01 0.02 0.01 0.01 0.02 0.05 0.07 0.03 0.02 0.01 0.00 0.00 0.00 0.02 0.01 0.01 0.01 0.04 0.04 0.11 0.16 0.14 0.08 0.11 0.09 0.09 0.11 0.09 0.09 0.13 0.14 0.09 0.07 0.13 0.13 0.07 0.02 0.01 0.00 0.00